Погода в Пилюгине

Россия / Оренбургская область     53°24′05″N   52°24′50″E
темп.,
°C
ветер,
м/с
пор.,
м/с
влажн.,
%
обл.,
%
осадки,
мм/ч
давл.,
гПа
погр.,
м
21 января, пт
пт2123:00−16юв2296100 0.0 102336
02:00−17юв229892 0.1 102331
05:00−16юв229895 0.1 102319
08:00−17юв229980 0.1 102314
11:00−15ююв2397100 0.1 102461
14:00−12ююв249580 0.1 1023138
17:00−15вюв229861 0.1 102420
20:00−19вюв2210099 0.0 102513
22 января, сб
сб2223:00−16вюв2299100 0.1 102420
02:00−16юв2299100 0.1 102425
05:00−12юв499595 0.2 1024238
08:00−11юв41094100 0.1 1024293
11:00−10юв41193100 0.1 1025314
14:00−9ююв41192100 0.0 1025352
17:00−9ююв41092100 0.0 1026312
20:00−10юв41092100 0.0 1027261
23 января, вс
вс2323:00−11юв3990100 0.0 1028198
02:00−12юв3689100 0.0 1030154
05:00−11юв3887100 0.0 1030209
08:00−13юв2488100 0.0 103264
11:00−12вюв2786100 0.0 1033214
14:00−10вюв3883100 0.0 1034237
17:00−9вюв2686100 0.0 1035221
20:00−13всв1191100 0.0 103724
24 января, пн
пн2423:00−13вюв2589100 0.0 103874
02:00−15в2291100 0.0 103910
05:00−14в2588100 0.0 104094
08:00−17в2293100 0.0 104016
11:00−16в2292100 0.0 104126
14:00−12в2784100 0.0 1040200
17:00−13в2290100 0.0 104027
20:00−15вюв2292100 0.0 104026
25 января, вт
вт2523:00−17в119291 0.0 104010
02:00−18в1192100 0.0 103911
05:00−19юв1191100 0.0 10399
08:00−20вюв2191100 0.0 10389
11:00−18юв2289100 0.0 103825
14:00−12ююв2382100 0.0 103795
17:00−14ююв2291100 0.0 10379
20:00−19вюв119479 0.0 10379